sat.trackr.live / text

‹ back to catalog

LEMUR-2-MYRA

NORAD 66787 · 2025-276EC

PAYLOAD ACTIVE UNKNOWN

§ Identity

Operator
Country
US
Launch date
2025-11-28
Launch site
AFWTR
Launch vehicle
Mass (kg)
RCS (m²)

Purposes: earth_obs

External: N2YO · Heavens-Above · Gunter

§ Orbital elements

Epoch: 2026-05-25T02:43:49.237248Z

Period
96.01 min
Inclination
97.5245°
Eccentricity
0.0013837
Mean motion
14.99911092 rev/d
Perigee alt
557.6 km
Apogee alt
576.8 km
Semi-major
6,945.3 km
B*
3.9689e-4
RAAN
216.7557°
Arg perigee
218.4326°
Mean anomaly
141.5914°
Rev number
2,675

§ Raw data

LEMUR-2-MYRA1 66787U 25276EC  26145.11376432  .00004877  00000+0  39689-3 0  99942 66787  97.5245 216.7557 0013837 218.4326 141.5914 14.99911092 26759

JSON: /api/v1/satellites/66787 · /tle

For live sub-satellite position, see the globe view (requires WebGL).

§ Visibility from observer

Set your observer location to see the next 7 days of passes ≥ 10°. The values pass through the URL so the page stays shareable.

No JS? Fill the form by hand. The geolocation button needs JavaScript.